Location: Chaves
(41.7330°N, 7.4670°W)
Time: 13:06:10
(UTC+00:00)

ISS - Visible Passes

Search period start: 17 December 2018 00:00
Search period end: 27 December 2018 00:00
Orbit: 401 x 408 km, 51.6° (Epoch: 18 December)

Date Brightness Start Highest point End Pass type
(mag) Time Alt. Az. Time Alt. Az. Time Alt. Az.
23 Dec -1.2 06:44:04 10° S 06:46:45 23° SE 06:49:28 10° E visible
24 Dec -0.6 05:53:12 10° SSE 05:54:43 13° SE 05:56:14 10° ESE visible
25 Dec -3.2 06:35:19 10° SW 06:38:32 57° SE 06:41:46 10° ENE visible
26 Dec -2.0 05:45:45 27° SSE 05:46:21 29° SE 05:49:16 10° ENE visible
26 Dec -3.1 07:19:41 10° W 07:22:46 36° NNW 07:25:52 10° NE visible
